This demonstration page uses our WeatherBlox Daily Observations layout. Learn more.

Left ArrowRight Arrow

39.01783, -85.05884

Hourly Observations for November 18, 2021

Temp ( °F °C ) Dew Point ( °F °C ) Humidity (%) Winds ( mph kmh ) Pressure ( in mb ) Visibility ( mi km ) Precip ( " mm )
12:52 am 00:52 Cloudy with Rain 62 16.7 53 11.7 73 73 W 22 35 29.98 1015 6 10 0.00 0.00
12:54 am 00:54 Cloudy with Rain 61 16.1 54 12.2 78 78 W 16 26 29.99 1016 4 6 0.00 0.00
12:59 am 00:59 Cloudy with Heavy Rain 60 15.6 54 12.2 80 80 W 14 22 29.99 1016 3 4 0.03 0.76
1:04 am 01:04 Cloudy with Light Rain 59 15 54 12.2 83 83 W 12 19 29.99 1016 3 5 0.05 1.27
1:13 am 01:13 Cloudy with Light Rain 59 15 55 12.8 87 87 W 14 22 29.99 1016 9 14 0.05 1.27
1:35 am 01:35 Cloudy with Rain 53 11.7 50 10 89 89 NW 13 20 30.01 1016 6 10 0.05 1.27
1:47 am 01:47 Cloudy with Rain 52 11 48 9 88 88 WNW 14 22 30.03 1017 3 5 0.08 2.03
1:52 am 01:52 Cloudy with Light Rain 52 11.1 49 9.4 89 89 WNW 15 24 30.01 1016 4 6 0.08 2.03
2:52 am 02:52 Cloudy with Light Rain 47 8.3 43 6.1 86 86 NW 20 31 30.06 1018 7 11 0.02 0.51
3:31 am 03:31 Cloudy with Light Rain 44 6.7 40 4.4 85 85 NW 18 30 30.09 1019 5 8 0.02 0.51
3:48 am 03:48 Cloudy with Rain 43 6 39 4 87 87 NW 16 26 30.11 1020 3 4 0.05 1.27
3:52 am 03:52 Cloudy with Rain 43 6.1 39 3.9 86 86 NNW 14 22 30.07 1018 3 5 0.06 1.52
4:18 am 04:18 Cloudy with Light Rain 42 5.6 39 3.9 89 89 NNW 8 13 30.10 1019 8 13 0.03 0.76
4:49 am 04:49 Cloudy with Heavy Rain 43 6 39 4 87 87 NW 10 17 30.12 1020 2 3 0.06 1.52
4:52 am 04:52 Cloudy with Heavy Rain 42 5.6 39 3.9 89 89 WNW 13 20 30.10 1019 2 3 0.07 1.78
4:54 am 04:54 Cloudy with Rain 42 5.6 39 3.9 89 89 WNW 14 22 30.14 1021 3 5 0.01 0.25
5:52 am 05:52 Cloudy with Rain 42 5.6 39 3.9 89 89 W 6 9 30.11 1020 4 6 0.08 2.03
6:16 am 06:16 Cloudy with Light Rain 42 5.6 38 3.3 85 85 W 14 22 30.16 1021 8 13 0.04 1.02
6:52 am 06:52 Cloudy 41 5 36 2.2 82 82 WNW 13 20 30.12 1020 10 16 0.04 1.02
7:52 am 07:52 Cloudy 41 5 37 2.8 86 86 W 12 19 30.16 1021 10 16 N/A
8:52 am 08:52 Cloudy 41 5 33 0.6 73 73 WNW 15 24 30.20 1023 10 16 N/A
9:52 am 09:52 Mostly Cloudy 41 5 29 -1.7 62 62 WNW 18 30 30.22 1023 10 16 N/A
10:52 am 10:52 Mostly Cloudy 43 6.1 28 -2.2 56 56 NW 18 30 30.23 1024 10 16 N/A
11:52 am 11:52 Cloudy 43 6.1 28 -2.2 56 56 W 16 26 30.23 1024 10 16 N/A
12:52 pm 12:52 Mostly Cloudy 44 6.7 26 -3.3 49 49 W 13 20 30.22 1023 10 16 N/A
1:52 pm 13:52 Mostly Cloudy 46 7.8 25 -3.9 44 44 WSW 15 24 30.22 1023 10 16 N/A
2:52 pm 14:52 Mostly Cloudy 46 7.8 25 -3.9 44 44 W 14 22 30.21 1023 10 16 N/A
3:52 pm 15:52 Mostly Cloudy 45 7.2 21 -6.1 39 39 WSW 17 28 30.22 1023 10 16 N/A
4:52 pm 16:52 Partly Cloudy 44 6.7 20 -6.7 38 38 W 15 24 30.25 1024 10 16 N/A
5:52 pm 17:52 Mostly Clear 41 5 19 -7.2 41 41 W 13 20 30.27 1025 10 16 N/A
6:52 pm 18:52 Clear 39 3.9 19 -7.2 45 45 WSW 8 13 30.30 1026 10 16 N/A
7:52 pm 19:52 Clear 36 2.2 21 -6.1 55 55 W 9 15 30.33 1027 10 16 N/A
8:52 pm 20:52 Mostly Clear 36 2.2 21 -6.1 55 55 WSW 8 13 30.34 1027 10 16 N/A
9:52 pm 21:52 Mostly Clear 35 1.7 22 -5.6 59 59 W 10 17 30.37 1028 10 16 N/A
10:52 pm 22:52 Partly Cloudy 36 2.2 23 -5 59 59 NW 14 22 30.38 1029 10 16 N/A
11:52 pm 23:52 Mostly Clear 33 0.6 20 -6.7 58 58 NW 15 24 30.41 1030 10 16 N/A

Powered by AerisWeather